Weather reports worldwide

Advertisment
Saarbrücken-Ensheim, Germany (10708): temperature & dewpoint: 20.09.2018 11:00:00 - 26.09.2018 11:00:00 (CEST)Saarbrücken-Ensheim, Germany (10708): temperature 5cm & temperature -5cm: 20.09.2018 11:00:00 - 26.09.2018 11:00:00 (CEST)Saarbrücken-Ensheim, Germany (10708): temperature -20cm & temperature -100cm: 20.09.2018 11:00:00 - 26.09.2018 11:00:00 (CEST)Saarbrücken-Ensheim, Germany (10708): wind speed & gusts: 20.09.2018 11:00:00 - 26.09.2018 11:00:00 (CEST)Saarbrücken-Ensheim, Germany (10708): wind direction: 20.09.2018 11:00:00 - 26.09.2018 11:00:00 (CEST)Saarbrücken-Ensheim, Germany (10708): reduced air pressure: 20.09.2018 11:00:00 - 26.09.2018 11:00:00 (CEST)Saarbrücken-Ensheim, Germany (10708): visibility: 20.09.2018 11:00:00 - 26.09.2018 11:00:00 (CEST)Saarbrücken-Ensheim, Germany (10708): sunshine duration: 20.09.2018 11:00:00 - 26.09.2018 11:00:00 (CEST)Saarbrücken-Ensheim, Germany (10708): precipitation: 20.09.2018 11:00:00 - 26.09.2018 11:00:00 (CEST)
Date & Time tt [°C] td [°C] tt 5cm [°C] tt -5cm [°C] tt -20cm [°C] tt -100cm [°C] ff [km/h] ff [kn] fx [km/h] fx [kn] dd ppp [hPa] vv [km] sd [min] rr [mm]
26.09.2018 11:00:00 10,6 1,6 13,1 11,3 11,4 17,9 15 8 22 12 E 1035,3 10 60 0,0
26.09.2018 10:00:00 7,8 1,7 8,9 8,6 11,3 17,9 11 6 21 11 NE 1035,7 10 60 0,0
26.09.2018 09:00:00 6,4 0,8 6,7 6,7 11,4 17,9 15 8 22 12 NE 1035,5 10 57 0,0
26.09.2018 08:00:00 4,1 0,3 2,4 6,1 11,6 17,9 12 6 21 11 ENE 1035,5 50 16 0,0
26.09.2018 07:00:00 3,2 0,0 1,3 6,3 11,9 17,9 13 7 20 11 NE 1035,3 50 0 0,0
26.09.2018 06:00:00 3,1 0,8 -0,6 6,7 12,2 18,0 2 1 16 9 - 1035,2 10 0 0,0
26.09.2018 05:00:00 4,7 0,6 3,1 7,1 12,4 18,0 9 5 27 15 NE 1035,4 10 0 0,0
26.09.2018 04:00:00 6,1 0,3 4,2 7,5 12,7 18,0 9 5 25 13 NE 1035,2 10 0 0,0
26.09.2018 03:00:00 6,4 0,6 4,7 7,9 13,0 18,0 15 8 28 15 ENE 1035,5 10 0 0,0
26.09.2018 02:00:00 6,9 1,0 5,3 8,3 13,4 18,0 18 10 28 15 ENE 1036,3 50 0 0,0
26.09.2018 01:00:00 5,9 1,4 4,2 8,8 13,7 18,0 13 7 22 12 E 1036,8 50 0 0,0
26.09.2018 00:00:00 6,7 1,5 5,1 9,4 14,1 18,1 14 8 25 14 E 1037,5 50 0 0,0
25.09.2018 23:00:00 7,1 1,9 5,6 10,1 14,5 18,1 12 7 22 12 E 1037,8 50 0 0,0
25.09.2018 22:00:00 7,6 1,8 5,6 10,9 14,9 18,1 11 6 18 10 ENE 1037,6 10 0 0,0
25.09.2018 21:00:00 7,9 2,1 5,4 12,0 15,3 18,1 12 6 18 10 NE 1037,4 45 0 0,0
25.09.2018 20:00:00 8,7 2,0 6,3 13,6 15,6 18,1 9 5 24 13 ENE 1036,9 10 24 0,0
25.09.2018 19:00:00 12,2 1,8 10,9 15,6 15,7 18,2 15 8 27 15 E 1036,3 10 60 0,0
25.09.2018 18:00:00 14,2 2,0 14,4 17,5 15,6 18,2 16 9 33 18 E 1036,1 60 60 0,0
25.09.2018 17:00:00 14,2 1,0 15,6 18,3 15,3 18,2 21 12 36 19 ENE 1036,4 60 60 0,0
25.09.2018 16:00:00 14,8 1,1 16,5 18,6 14,9 18,2 22 12 36 20 E 1036,9 10 60 0,0
25.09.2018 15:00:00 13,9 1,0 15,8 18,4 14,3 18,2 24 13 34 18 ENE 1037,5 50 60 0,0
25.09.2018 14:00:00 13,6 2,4 16,1 17,5 13,7 18,2 21 11 35 19 ENE 1037,7 10 59 0,0
25.09.2018 13:00:00 12,8 3,2 15,0 15,9 13,1 18,2 21 11 33 18 ENE 1038,0 10 55 0,0
25.09.2018 12:00:00 11,4 3,8 13,6 14,0 12,6 18,3 18 10 35 19 E 1038,6 50 56 0,0
25.09.2018 11:00:00 10,6 4,9 12,5 12,1 12,2 18,3 18 10 31 17 ENE 1038,5 10 60 0,0
25.09.2018 10:00:00 8,1 4,6 9,1 9,8 12,1 18,3 13 7 21 11 NE 1038,5 10 60 0,0
25.09.2018 09:00:00 6,7 4,0 6,8 7,7 12,2 18,3 13 7 22 12 NE 1038,1 10 60 0,0
25.09.2018 08:00:00 4,8 3,5 3,6 6,9 12,4 18,3 14 7 24 13 E 1038,2 50 16 0,0
25.09.2018 07:00:00 4,8 3,4 3,5 7,0 12,6 18,3 13 7 22 12 NE 1038,2 10 0 0,0
25.09.2018 06:00:00 5,8 3,7 4,0 7,0 13,0 18,3 13 7 22 12 NE 1037,7 50 0 0,0
25.09.2018 05:00:00 4,0 2,8 0,3 7,4 13,3 18,4 8 4 15 8 NE 1038,1 10 0 0,0
25.09.2018 04:00:00 4,0 3,1 0,5 7,9 13,7 18,4 5 3 9 5 NE 1038,1 10 0 0,0
25.09.2018 03:00:00 4,0 3,2 1,2 8,4 14,0 18,4 4 2 8 4 E 1038,2 50 0 0,0
25.09.2018 02:00:00 4,7 3,5 2,1 9,1 14,4 18,4 3 1 8 4 E 1038,2 50 0 0,0
25.09.2018 01:00:00 6,3 3,5 2,5 9,7 14,8 18,4 6 4 16 8 NNE 1037,8 50 0 0,0
25.09.2018 00:00:00 6,6 3,3 3,4 10,4 15,2 18,4 10 6 16 9 NNE 1037,3 50 0 0,0
24.09.2018 23:00:00 9,3 4,0 7,0 11,2 15,5 18,4 8 4 16 9 NNE 1036,6 10 0 0,0
24.09.2018 22:00:00 9,7 4,3 8,0 12,1 15,9 18,5 13 7 22 12 N 1036,2 50 0 0,0
24.09.2018 21:00:00 9,4 4,7 7,8 12,8 16,3 18,5 11 6 21 11 NNW 1035,9 10 0 0,0
24.09.2018 20:00:00 10,2 4,3 8,6 13,9 16,7 18,5 9 5 15 8 NNW 1035,0 60 3 0,0
24.09.2018 19:00:00 11,3 5,1 9,9 15,6 16,9 18,5 10 5 22 12 NW 1034,4 60 3 0,0
24.09.2018 18:00:00 13,0 3,6 13,2 17,7 16,9 18,5 16 9 25 13 NW 1033,8 10 52 0,0
24.09.2018 17:00:00 14,3 3,4 17,5 18,4 16,7 18,5 11 6 21 11 N 1033,7 10 34 0,0
24.09.2018 16:00:00 13,5 2,8 14,3 19,4 16,4 18,5 18 10 26 14 N 1034,0 10 30 0,0
24.09.2018 15:00:00 13,4 2,6 15,1 19,6 16,0 18,6 9 5 26 14 NNW 1034,1 60 37 0,0
24.09.2018 14:00:00 13,6 3,3 16,9 19,1 15,4 18,6 13 7 27 14 N 1034,4 10 38 0,0
24.09.2018 13:00:00 12,4 3,2 15,9 18,5 14,8 18,6 13 7 22 12 NNW 1034,6 50 41 0,0
24.09.2018 12:00:00 12,0 5,2 16,5 17,0 14,2 18,6 10 5 24 13 NNE 1034,6 50 59 0,0
24.09.2018 11:00:00 10,8 5,4 15,2 14,4 13,7 18,6 14 8 22 12 N 1034,5 50 60 0,0
24.09.2018 10:00:00 9,0 6,0 11,1 11,6 13,6 18,6 6 3 11 6 WNW 1034,3 35 60 0,0
24.09.2018 09:00:00 7,1 5,9 8,3 9,1 13,8 18,6 5 3 11 6 NW 1033,6 30 60 0,0
24.09.2018 08:00:00 5,3 5,1 2,4 8,4 14,1 18,6 4 2 11 6 W 1032,9 25 12 0,0
24.09.2018 07:00:00 5,1 4,7 1,6 8,8 14,4 18,6 7 4 11 6 WNW 1032,3 30 0 0,0
24.09.2018 06:00:00 4,8 4,3 2,1 9,5 14,8 18,7 0 0 8 4 N 1031,0 50 0 0,0
24.09.2018 05:00:00 5,9 5,1 3,9 10,1 15,1 18,7 8 4 16 9 NW 1030,2 10 0 0,0
24.09.2018 04:00:00 6,2 5,2 4,8 10,9 15,4 18,7 10 5 15 8 NW 1029,1 60 0 0,0
24.09.2018 03:00:00 8,0 5,8 7,1 11,6 15,6 18,7 7 4 21 11 NW 1028,1 60 0 0,0
24.09.2018 02:00:00 8,8 5,2 8,0 11,9 15,9 18,7 11 6 21 11 NNW 1027,0 10 0 0,0
24.09.2018 01:00:00 8,9 6,0 8,2 12,2 16,2 18,7 9 5 26 14 NNW 1025,6 60 0 0,0
24.09.2018 00:00:00 9,4 5,3 8,3 12,7 16,5 18,7 18 10 28 15 NW 1023,9 10 0 0,0
23.09.2018 23:00:00 9,7 7,8 9,2 12,9 16,8 18,7 12 7 23 12 NW 1021,8 60 0 0,0
23.09.2018 22:00:00 9,7 7,7 8,6 13,5 17,1 18,7 18 10 31 17 NW 1020,0 70 0 0,0
23.09.2018 21:00:00 11,1 9,1 10,5 14,5 17,4 18,8 16 9 52 28 NNW 1017,3 70 0 0,0
23.09.2018 20:00:00 12,0 10,0 11,4 15,4 17,7 18,8 24 13 54 29 NW 1014,3 70 0 0,2
23.09.2018 19:00:00 13,6 12,5 13,3 16,5 17,8 18,8 25 14 49 26 NW 1010,8 15 0 0,1
23.09.2018 18:00:00 15,0 13,5 14,5 17,3 17,9 18,8 41 22 93 50 WNW 1008,7 10 0 15,9
23.09.2018 17:00:00 18,5 17,5 17,9 18,4 17,8 18,8 43 23 74 40 WSW 1006,5 2,0 0 0,2
23.09.2018 16:00:00 18,4 17,3 18,1 18,3 17,7 18,8 38 20 67 36 SW 1007,3 10 0 0,8
23.09.2018 15:00:00 18,3 17,3 17,9 18,4 17,5 18,8 39 21 60 32 SW 1008,6 3,5 0 0,4
23.09.2018 14:00:00 18,0 17,1 17,8 18,0 17,3 18,8 27 15 51 28 SW 1010,2 4,0 0 0,4
23.09.2018 13:00:00 17,9 16,9 17,9 17,6 17,1 18,8 34 18 54 29 SW 1011,3 5 0 0,0
23.09.2018 12:00:00 17,3 16,4 17,2 16,8 16,9 18,9 33 18 50 27 SW 1012,1 5 0 0,2
23.09.2018 11:00:00 16,5 15,7 16,3 16,2 16,8 18,9 29 16 53 28 SW 1012,7 8 0 0,0
23.09.2018 10:00:00 16,1 15,2 15,8 15,8 16,7 18,9 27 15 54 29 SW 1012,9 8 0 0,1
23.09.2018 09:00:00 16,2 15,4 15,7 15,3 16,7 18,9 24 13 40 21 SW 1012,9 8 0 0,2
23.09.2018 08:00:00 14,7 13,6 14,2 14,8 16,7 18,9 16 9 25 13 SW 1013,2 10 0 0,7
23.09.2018 07:00:00 13,8 12,4 13,2 14,5 16,8 18,9 16 9 24 13 SW 1013,7 25 0 0,0
23.09.2018 06:00:00 12,9 11,4 12,3 14,4 16,9 18,9 16 9 24 13 SW 1014,4 50 0 0,0
23.09.2018 05:00:00 12,0 10,7 11,7 14,3 17,0 18,9 13 7 26 14 SSW 1015,2 10 0 0,1
23.09.2018 04:00:00 11,4 10,8 11,3 14,3 17,1 18,9 9 5 22 12 S 1016,3 14 0 0,2
23.09.2018 03:00:00 11,0 9,9 10,7 14,5 17,3 19,0 9 5 15 8 S 1017,5 10 0 0,2
23.09.2018 02:00:00 10,7 9,5 10,4 14,6 17,5 19,0 5 3 16 9 ESE 1018,6 10 0 0,2
23.09.2018 01:00:00 10,8 9,6 10,4 15,0 17,7 19,0 7 4 14 7 ESE 1019,2 10 0 0,2
23.09.2018 00:00:00 11,3 8,9 10,4 15,4 17,9 19,0 9 5 16 9 SSW 1020,0 16 0 0,2
22.09.2018 23:00:00 11,5 9,2 10,8 15,7 18,1 19,0 0 0 4 2 N 1020,4 55 0 0,0
22.09.2018 22:00:00 11,8 9,8 11,0 16,2 18,4 19,0 3 1 8 4 SSE 1020,7 60 0 0,1
22.09.2018 21:00:00 12,1 8,4 11,2 16,8 18,6 19,0 3 1 5 3 SSE 1020,5 50 0 0,1
22.09.2018 20:00:00 12,9 8,0 11,2 17,7 18,8 19,0 5 3 16 9 W 1020,5 10 0 0,1
22.09.2018 19:00:00 15,1 4,3 14,8 18,8 18,9 19,0 11 6 21 11 W 1020,6 45 0 0,0
22.09.2018 18:00:00 15,8 4,4 16,3 19,7 18,8 19,0 15 8 24 13 WSW 1020,4 10 0 0,0
22.09.2018 17:00:00 15,9 4,1 16,8 20,7 18,6 19,0 17 9 31 17 W 1021,2 50 0 0,0
22.09.2018 16:00:00 16,4 4,7 18,3 21,4 18,3 19,1 22 12 33 18 WSW 1021,6 50 6 0,0
22.09.2018 15:00:00 16,5 4,7 19,3 21,4 17,8 19,1 22 12 34 18 SW 1022,0 50 24 0,0
22.09.2018 14:00:00 15,0 4,9 17,0 21,8 17,1 19,1 19 11 31 17 W 1022,7 50 31 0,0
22.09.2018 13:00:00 16,1 6,4 22,3 21,0 16,3 19,1 21 11 35 19 WSW 1023,0 10 60 0,0
22.09.2018 12:00:00 14,4 7,1 18,4 17,2 15,8 19,1 21 11 27 15 SW 1023,5 10 59 0,0
22.09.2018 11:00:00 12,2 6,8 14,6 14,3 15,6 19,1 21 11 26 14 W 1024,7 10 37 0,0
22.09.2018 10:00:00 11,1 6,1 13,0 12,5 15,5 19,1 16 9 24 13 SW 1024,1 10 31 0,0
22.09.2018 09:00:00 9,4 5,8 9,3 11,2 15,6 19,1 9 5 13 7 WSW 1024,5 50 1 0,0
22.09.2018 08:00:00 8,3 5,8 7,0 10,7 15,8 19,1 9 5 21 11 WSW 1024,5 10 0 0,0
22.09.2018 07:00:00 8,2 5,3 6,4 10,9 16,0 19,1 9 5 16 9 SW 1023,9 10 0 0,0
22.09.2018 06:00:00 8,4 5,1 7,0 10,9 16,3 19,1 4 2 18 10 S 1023,5 45 0 0,0
22.09.2018 05:00:00 7,9 4,5 4,9 11,2 16,6 19,1 6 3 16 9 SW 1023,6 45 0 0,0
22.09.2018 04:00:00 9,1 4,4 7,3 11,5 16,8 19,1 9 5 21 11 WSW 1023,3 45 0 0,0
22.09.2018 03:00:00 10,1 4,0 8,1 11,7 17,1 19,1 15 8 23 13 W 1023,0 45 0 0,0
22.09.2018 02:00:00 10,3 4,2 8,2 12,1 17,5 19,1 16 9 28 15 WSW 1022,3 10 0 0,0
22.09.2018 01:00:00 10,8 4,6 9,0 12,5 17,8 19,1 19 10 28 15 W 1021,8 45 0 0,0
22.09.2018 00:00:00 10,2 5,0 8,0 13,0 18,2 19,1 14 7 22 12 W 1021,4 45 0 0,0
21.09.2018 23:00:00 11,5 5,2 9,4 13,7 18,6 19,1 18 10 22 12 W 1020,6 10 0 0,0
21.09.2018 22:00:00 12,2 5,7 10,2 14,3 19,0 19,1 13 7 27 14 W 1020,0 10 0 0,0
21.09.2018 21:00:00 13,1 5,8 11,2 14,9 19,4 19,1 18 10 29 15 W 1018,7 45 0 0,0
21.09.2018 20:00:00 13,1 6,0 11,4 15,8 19,8 19,1 21 11 44 24 W 1017,5 10 2 0,0
21.09.2018 19:00:00 13,6 6,3 11,1 17,6 20,0 19,1 31 17 42 23 W 1015,9 50 22 0,0
21.09.2018 18:00:00 14,0 11,3 14,0 18,2 20,2 19,1 22 12 34 18 W 1015,1 10 12 0,0
21.09.2018 17:00:00 12,8 11,6 13,3 18,0 20,5 19,0 22 12 34 18 W 1014,5 32 0 0,3
21.09.2018 16:00:00 11,8 10,8 12,0 18,6 20,8 19,0 21 11 44 24 W 1014,0 10 0 0,4
21.09.2018 15:00:00 12,9 11,5 12,7 20,4 20,9 19,0 31 17 54 29 WNW 1012,9 10 0 0,8
21.09.2018 14:00:00 18,2 14,4 16,9 22,0 20,7 19,0 28 15 57 31 W 1011,0 45 0 0,1
21.09.2018 13:00:00 21,1 11,6 22,5 22,9 20,3 19,0 37 20 55 30 WSW 1009,9 10 12 0,0
21.09.2018 12:00:00 21,8 12,2 23,0 21,5 20,1 19,0 31 17 52 28 SW 1010,1 10 8 0,0
21.09.2018 11:00:00 20,6 13,4 21,6 20,2 19,9 19,0 26 14 37 20 SW 1010,6 10 5 0,0
21.09.2018 10:00:00 19,3 13,4 20,1 18,9 19,8 19,0 16 9 26 14 SW 1010,6 50 13 0,0
21.09.2018 09:00:00 18,2 13,0 18,1 17,8 19,9 19,0 14 8 26 14 SW 1010,7 50 15 0,0
21.09.2018 08:00:00 17,6 12,7 16,2 17,4 20,1 19,0 16 9 25 14 SSW 1010,1 10 0 0,0
21.09.2018 07:00:00 17,2 12,5 13,9 17,7 20,3 19,0 13 7 31 17 SW 1010,3 40 0 0,0
21.09.2018 06:00:00 18,1 12,7 16,8 17,7 20,5 19,0 10 6 18 10 SSW 1010,6 40 0 0,0
21.09.2018 05:00:00 17,5 12,7 15,3 17,9 20,8 19,0 8 4 16 9 SSW 1011,4 10 0 0,0
21.09.2018 04:00:00 18,5 12,8 16,2 18,2 21,1 19,0 11 6 18 10 SSW 1011,8 10 0 0,0
21.09.2018 03:00:00 17,7 12,6 13,5 18,6 21,4 19,0 9 5 18 10 SSW 1012,6 10 0 0,0
21.09.2018 02:00:00 19,0 12,7 15,8 19,0 21,7 19,0 11 6 18 10 SSW 1012,9 10 0 0,0
21.09.2018 01:00:00 19,4 12,7 14,4 19,4 22,2 19,0 8 4 13 7 SSW 1013,2 40 0 0,0
21.09.2018 00:00:00 19,7 13,3 14,1 20,1 22,6 19,0 5 3 15 8 SSW 1013,6 10 0 0,0
20.09.2018 23:00:00 18,4 13,4 12,8 21,0 23,1 19,0 4 2 8 4 - 1014,4 10 0 0,0
20.09.2018 22:00:00 18,1 13,6 13,8 22,1 23,6 19,0 4 2 7 4 S 1014,9 50 0 0,0
20.09.2018 21:00:00 17,3 13,2 13,8 23,6 24,0 19,0 5 3 8 4 SE 1015,4 10 0 0,0
20.09.2018 20:00:00 20,9 13,4 15,9 25,6 24,3 19,0 9 5 12 7 SW 1015,2 10 8 0,0
20.09.2018 19:00:00 24,6 13,3 22,5 27,9 24,4 19,0 9 5 20 11 SW 1015,2 10 60 0,0
20.09.2018 18:00:00 25,8 13,0 26,8 29,7 24,2 19,0 16 9 29 16 WSW 1015,6 10 60 0,0
20.09.2018 17:00:00 25,8 12,7 29,1 30,8 23,7 19,0 24 13 31 17 W 1016,3 10 60 0,0
20.09.2018 16:00:00 26,2 13,1 30,0 31,1 23,1 19,0 18 10 32 17 WSW 1016,9 60 58 0,0
20.09.2018 15:00:00 26,0 12,6 30,4 30,9 22,2 19,0 24 13 35 19 SW 1017,4 10 60 0,0
20.09.2018 14:00:00 25,4 13,0 29,7 29,5 21,3 19,0 21 11 34 18 WSW 1018,1 10 60 0,0
20.09.2018 13:00:00 23,9 13,4 30,0 27,4 20,5 19,0 18 10 31 17 WSW 1018,9 45 60 0,0
20.09.2018 12:00:00 22,9 13,0 27,8 24,8 19,8 19,0 15 8 28 15 SW 1019,7 10 60 0,0
20.09.2018 11:00:00 21,1 13,5 25,8 21,7 19,3 19,0 11 6 18 10 SW 1020,1 35 60 0,0

tt = temperature
td = dewpoint
tt 5cm = temperature 5cm
tt -5cm = temperature -5cm
tt -20cm = temperature -20cm
tt -100cm = temperature -100cm
ff = wind speed
fx = gusts
dd = wind direction
ppp = reduced air pressure
vv = visibility
sd = sunshine duration
rr = precipitation

Next stations